Regional Weather Roundup
Issued by NWS

Home | Current Version | Previous Version | Graphics & Text | Print | Product List | Glossary On
Versions: 1 2 3 4 5 6 7 8 9 10 11 12 13 14 15 16 17 18 19 20 21 22 23 24 25 26 27 28 29 30 31 32 33 34 35 36 37 38 39 40 41 42 43 44 45 46 47 48 49 50
000
ASUS45 KABQ 310301
RWRNM
NEW MEXICO REGIONAL WEATHER ROUNDUP
NATIONAL WEATHER SERVICE ALBUQUERQUE NM
900 PM MDT THU JUL 30 2015

NOTE: "FAIR" MEANS FEW OR NO CLOUDS BELOW 12,000 FEET AGL WITH NO
       SIGNIFICANT WEATHER OR OBSTRUCTIONS TO VISION.

      THIS PRODUCT IS RELEASED AS TWO VERSIONS.  ONE VERSION NEAR
      THE TOP OF THE HOUR CONTAINING PRELIMINARY DATA FROM ALBUQUERQUE
      AND OTHER STATIONS.  A FINAL VERSION WITH ADDITIONAL DATA IS
      ISSUED ABOUT 10 MINUTES AFTER THE HOUR.

NMZ501-503-504-510>518-310400-
NORTHWEST PLATEAU/NORTHCENTRAL MOUNTAINS

CITY           SKY/WX    TMP DP  RH WIND       PRES   REMARKS
FARMINGTON     CLOUDY    67  62  84 NE8       30.30S
SANTA FE       CLOUDY    65  59  81 S9        30.40R
TAOS           CLOUDY    61  48  63 CALM      30.49R

$$
NMZ402-403-502-505>509-310400-
WESTCENTRAL MOUNTAINS/SOUTHWEST MOUNTAINS

CITY           SKY/WX    TMP DP  RH WIND       PRES   REMARKS
GALLUP         CLOUDY    64  60  87 VRB3      30.39R
SILVER CITY      N/A     73  63  68 E6        30.30S

$$
NMZ407-409-411-412-310400-
SOUTHERN DESERTS

CITY           SKY/WX    TMP DP  RH WIND       PRES   REMARKS
DEMING         PTCLDY    80  61  52 E8        30.20R
HOLLOMAN AFB   MOCLDY    82  58  44 W3        30.19R
ALAMOGORDO     MOCLDY    79  59  50 CALM      30.21S
T OR C         CLOUDY    77  61  57 W13       30.26R

$$
NMZ519>523-310400-
CENTRAL VALLEYS/CENTRAL HIGHLANDS

CITY           SKY/WX    TMP DP  RH WIND       PRES   REMARKS
ALBUQUERQUE    CLOUDY    74  58  57 SE12      30.32R
DOUBLE EAGLE   MOCLDY    66  63  88 S5        30.36R
MORIARTY ARPT    N/A     62  58  87 CALM      30.41S
CLINES CORNERS NOT AVBL
BELEN          FAIR      69  60  71 S8        30.31R
SOCORRO        NOT AVBL

$$
NMZ524>526-539-540-310400-
SOUTHCENTRAL MOUNTAINS

CITY           SKY/WX    TMP DP  RH WIND       PRES   REMARKS
RUIDOSO          N/A    N/A N/A N/A MISG        N/A

$$
NMZ527>531-310400-
NORTHEAST HIGHLANDS/NORTHEAST PLAINS

CITY           SKY/WX    TMP DP  RH WIND       PRES   REMARKS
LAS VEGAS      CLOUDY    63  59  87 N3        30.47R
RATON          CLOUDY    67  58  72 CALM      30.40R
CLAYTON        MOCLDY    66  64  93 E6        30.34R

$$
NMZ532>537-310400-
EASTCENTRAL PLAINS

CITY           SKY/WX    TMP DP  RH WIND       PRES   REMARKS
TUCUMCARI      PTCLDY    73  64  73 S6        30.25R
CANNON AFB     MOCLDY    72  67  86 E6        30.27S
CLOVIS AIRPORT MOCLDY    72  66  83 CALM      30.29R

$$
NMZ028-029-538-310400-
SOUTHEAST PLAINS

CITY           SKY/WX    TMP DP  RH WIND       PRES   REMARKS
ROSWELL        CLOUDY    81  63  54 NE15      30.19R
ARTESIA        CLOUDY    90  57  33 VRB7      30.17R
CARLSBAD       MOCLDY    89  54  30 SE9       30.11R
HOBBS          PTCLDY    84  54  34 E9        30.19R


$$


USA.gov is the U.S. government's official web portal to all federal, state and local government web resources and services.